Regional Weather Roundup
Issued by NWS

Home | Current Version | Previous Version | Text Only | Print | Product List | Glossary Off
Versions: 1 2 3 4 5 6 7 8 9 10 11 12 13 14 15 16 17 18 19 20 21 22 23 24 25 26 27 28 29 30 31 32 33 34 35 36 37 38 39 40 41 42 43 44 45 46 47 48 49 50

000
ASUS43 KLSX 280607
RWRMO

WEATHER SUMMARY FOR MISSOURI
NATIONAL WEATHER SERVICE SPRINGFIELD MO
1200 AM CST SUN DEC 28 2014

NOTE: "FAIR" INDICATES FEW OR NO CLOUDS BELOW 12,000 FEET WITH NO
       SIGNIFICANT WEATHER AND/OR OBSTRUCTIONS TO VISIBILITY.
       CURRENT SKY AND/OR WEATHER CONDITIONS ARE NOT AVAILABLE FOR
       CHILLICOTHE AND FARMINGTON.

MOZ001>031-035>038-043-044-053-054-280700-
...NORTHERN AND WESTERN MISSOURI...

CITY           SKY/WX    TMP DP  RH WIND       PRES   REMARKS
KANSAS CTY INT CLEAR     23  19  85 W5        30.26S WCI  17
6HR MIN TEMP:  21; 6HR MAX TEMP:  27;

KANSAS C DTWN  CLEAR     26  19  74 CALM      30.28F
6HR MIN TEMP:  26; 6HR MAX TEMP:  31;

LEE`S SUMMIT   CLEAR     23  18  81 W5        30.27S WCI  17
6HR MIN TEMP:  22; 6HR MAX TEMP:  28;

ST JOSEPH      CLEAR     22  17  81 W3        30.27F
6HR MIN TEMP:  19; 6HR MAX TEMP:  26;

CHILLICOTHE      N/A     22  18  85 CALM      30.27F
6HR MIN TEMP:  22; 6HR MAX TEMP:  30;

KIRKSVILLE     CLOUDY    26  22  84 NW9       30.24S WCI  17
6HR MIN TEMP:  26; 6HR MAX TEMP:  30;


$$
MOZ066>068-077>081-088>096-101>105-280700-
...SOUTHWEST MISSOURI...

CITY           SKY/WX    TMP DP  RH WIND       PRES   REMARKS
SPRINGFIELD    PTCLDY    27  23  85 NW7       30.22F WCI  19
6HR MIN TEMP:  27; 6HR MAX TEMP:  31;

JOPLIN         CLEAR     24  21  88 NW3       30.27F
6HR MIN TEMP:  22; 6HR MAX TEMP:  30;


$$
MOZ032>034-039>042-045>050-055>058-069>072-280700-
...CENTRAL MISSOURI...

CITY           SKY/WX    TMP DP  RH WIND       PRES   REMARKS
COLUMBIA       CLOUDY    29  23  78 NW10      30.24S WCI  20
6HR MIN TEMP:  29; 6HR MAX TEMP:  33;

JEFFERSON CITY CLOUDY    31  23  72 NW7       30.27R WCI  24
6HR MIN TEMP:  31; 6HR MAX TEMP:  34;

ROLLA          CLOUDY    29  25  85 NW9       30.20F WCI  20
6HR MIN TEMP:  29; 6HR MAX TEMP:  32;

SEDALIA        CLEAR     27  22  81 NW5       30.27S WCI  22
6HR MIN TEMP:  27; 6HR MAX TEMP:  33;

WHITEMAN AFB   CLEAR     23  19  86 NW5       30.27R WCI  17
WARRENSBURG    CLEAR     23  21  93 CALM      30.29R
OSAGE BEACH    CLOUDY    30  23  74 W6        30.25S WCI  24

$$
MOZ051-052-059>065-280700-
...EAST CENTRAL MISSOURI...

CITY           SKY/WX    TMP DP  RH WIND       PRES   REMARKS
ST LOUIS INTL  CLOUDY    34  26  72 NW10      30.22R WCI  26
6HR MIN TEMP:  34; 6HR MAX TEMP:  36; 6HR PCP:  0.01;

SPIRIT OF STL  CLOUDY    33  26  75 NW10      30.23R WCI  25
6HR MIN TEMP:  33; 6HR MAX TEMP:  35;

ST CHARLES     CLOUDY    34  27  75 NW10      30.23R WCI  26
6HR MIN TEMP:  34; 6HR MAX TEMP:  36; 6HR PCP: TRACE;


$$
MOZ072>076-082>087-097>100-106>115-280700-
...SOUTH CENTRAL AND SOUTHEAST MISSOURI...

CITY           SKY/WX    TMP DP  RH WIND       PRES   REMARKS
CAPE GIRARDEAU CLOUDY    37  33  85 N13       30.17F WCI  29
6HR MIN TEMP:  37; 6HR MAX TEMP:  43; 6HR PCP:  0.18;

FARMINGTON     CLOUDY    34  30  86 SE10      30.20F WCI  26
6HR MIN TEMP:  34; 6HR MAX TEMP:  37; 6HR PCP:  0.01;

POPLAR BLUFF   CLOUDY    39  34  82 N9        30.18R
6HR MIN TEMP:  39; 6HR MAX TEMP:  45; 6HR PCP:  0.23;

WEST PLAINS    CLOUDY    32  27  81 NW8       30.20S WCI  25
6HR MIN TEMP:  32; 6HR MAX TEMP:  36; 6HR PCP:  0.01;


$$



USA.gov is the U.S. government's official web portal to all federal, state and local government web resources and services.